Regional Weather Roundup
Issued by NWS Binghamton, NY

Home | Current Version | Previous Version | Text Only | Print | Product List | Glossary On
Versions: 1 2 3 4 5 6 7 8 9 10 11 12 13 14 15 16 17 18 19 20 21 22 23 24 25 26 27 28 29 30 31 32 33 34 35 36 37 38 39 40 41 42 43 44 45 46 47 48 49 50
000
ASUS41 KBGM 250410
RWRBGM
RWRBGM
BINGHAMTON REGIONAL WEATHER ROUNDUP
NATIONAL WEATHER SERVICE BINGHAMTON NY
1100 PM EST WED DEC 24 2014

Note: "fair" indicates few or no clouds below 12,000 feet with no
significant weather and/or obstructions to visibility.

* = Station(s) that does not report precipitation, such as rain,
snow, etc, also no thunder or fog.

!NYZ009-015>018-022>025-036-037-044>046-055>057-062-250500
...CENTRAL NEW YORK...

CITY           SKY/WX    TMP DP  RH WIND       PRES   REMARKS
BINGHAMTON     CLOUDY    53  51  93 S16G24    29.38F
CORTLAND       CLOUDY    54  52  94 S13G18    29.37F
DANSVILLE      CLOUDY    57  49  74 SE14      29.26F
ELMIRA         CLOUDY    57  52  83 S12G20    29.35F
ITHACA         CLOUDY    56  52  86 S13G22    29.36F
HAMILTON       CLOUDY    54  50  87 S15G22    29.38F
MONTICELLO     CLOUDY    48  48 100 CALM      29.54S VSB 1/4
NORWICH        CLOUDY    54  50  87 S10G20    29.41F
ONEONTA        CLOUDY    54  52  94 S5        29.44F
PENN YAN       CLOUDY    55  49  80 SW14G24   29.30F
ROME           CLOUDY    49  47  93 E8        29.40F
SIDNEY         CLOUDY    55  54  94 W6        29.44F
SYRACUSE       CLOUDY    50  50 100 E12       29.31F
$$

!PAZ038>040-043-044-047-048-072-250500
...NORTHEAST PENNSYLVANIA...

CITY           SKY/WX    TMP DP  RH WIND       PRES   REMARKS
HAZLETON       DRIZZLE   54  54 100 SE14G21   29.49F
SCRANTON       CLOUDY    58  53  84 S8        29.46F
TOWANDA*       PTCLDY    57  54  88 S16G24    29.38F
$$
&&
KEY
WCI = WIND CHILL INDEX
VSB = VISIBILITY
HX  = HEAT INDEX
$$


USA.gov is the U.S. government's official web portal to all federal, state and local government web resources and services.